TIME,DELAY(SENSOR),PRES,T(CTD),SAL,OXYGEN,RAWTEMP,T(OPTODE),TCPHASE,FLUOR,BETA(BETA700),BETA(BETA412),BETA(BETA440),CDOM,C(CSC),ED(ED411.90),ED(ED443.80),ED(ED489.40),ED(ED554.70),LU(LU412.20),LU(LU443.80),LU(LU489.40),LU(LU555.00),COMP,TILTX,TILTX(TILTY),CHECK
1345475824,5806,496.9100036621094000,17.4438991546630860,36.4533004760742200,229.6045989990234400,173.7158050537109400,17.4409008026123050,31.2470207214355470,50,104,98,78,68,13909,2146955209,2147513216,2147268150,2147466660,2147088000,2146953307,2147659766,2147121188,1448,-2,8,47559
1345475939,5804,486.4400024414062500,17.4911003112792970,36.4622993469238300,230.7239074707031200,172.2604064941406200,17.4848098754882800,31.1717491149902340,50,102,97,81,67,13911,2146956013,2147516480,2147271652,2147467693,2147087424,2146954797,2147655652,2147118061,1148,-2,8,27796
1345476068,5805,474.6099853515625000,17.5823993682861330,36.4794006347656250,231.6817932128906200,169.1773071289062500,17.5778408050537100,31.0829505920410160,51,101,97,81,66,13907,2146952713,2147511899,2147268406,2147466532,2147087323,2146955181,2147656704,2147121755,1439,-2,8,52210
1345476195,5805,462.8299865722656000,17.6481990814209000,36.4919013977050800,232.3636932373047000,166.9763031005859400,17.6442508697509770,31.0195503234863280,50,101,99,79,65,13908,2146955538,2147513161,2147269257,2147463369,2147086738,2146954797,2147655259,2147124205,1556,-2,8,16178
1345476312,5809,452.0199890136719000,17.7007999420166000,36.5009002685546900,233.3233947753906200,165.2861022949218800,17.6952590942382800,30.9497108459472660,50,101,98,80,68,13915,2146953801,2147512539,2147266377,2147462436,2147086528,2146957851,2147654912,2147121453,1900,-2,8,29054
1345476427,5803,441.5299987792969000,17.7604007720947270,36.5122985839843750,233.8744049072265600,163.2565002441406200,17.7565307617187500,30.8957691192626950,50,100,97,80,66,13916,2146954404,2147517248,2147266578,2147462774,2147088448,2146955520,2147658093,2147125915,1909,-2,8,41984
1345476554,5803,429.8299865722656000,17.8183994293212900,36.5232009887695300,234.8486938476562500,161.2854003906250000,17.8160305023193360,30.8219108581542970,50,100,97,81,66,13916,2146954331,2147513682,2147267940,2147463232,2147082313,2146958080,2147658605,2147121965,2026,-2,8,25629
1345476671,5805,419.0700073242187500,17.8696994781494140,36.5318984985351560,235.7967987060547000,159.6938934326172000,17.8640804290771500,30.7550392150878900,50,103,98,81,66,13916,2146952713,2147513060,2147265654,2147461668,2147087872,2146962861,2147658203,2147123849,2128,-2,8,1468
1345476786,5805,408.5799865722656000,17.9155998229980470,36.5404014587402340,236.4909057617187500,158.0207061767578000,17.9146003723144530,30.6992397308349600,50,101,97,80,65,13914,2146955072,2147510601,2147267492,2147463360,2147088310,2146959954,2147655158,2147123904,2320,-3,8,42004
1345476915,5803,396.9500122070312500,17.9785003662109380,36.5499992370605500,236.3125000000000000,155.9611053466797000,17.9767894744873050,30.6802692413330080,50,102,98,81,68,13912,2146956745,2147512493,2147268278,2147459995,2147079396,2146957897,2147656877,2147124525,2576,-2,8,6735
1345477030,5802,386.5799865722656000,18.0265007019042970,36.5572013854980500,236.5516052246093800,154.5045013427734400,18.0207805633544920,30.6492996215820300,51,102,97,79,66,13912,2146952576,2147513801,2147269522,2147459117,2147080576,2146950436,2147652836,2147123218,3087,-2,8,56637
1345477157,5805,375.1900024414062500,18.0671997070312500,36.5629997253418000,236.3282012939453000,153.1423034667968800,18.0619201660156250,30.6420707702636720,51,101,98,80,65,13912,2146954294,2147514706,2147270016,2147462555,2147088685,2146959926,2147657316,2147125869,3306,-2,8,43785
1345477286,5805,363.7600097656250000,18.1058998107910160,36.5677986145019500,236.0818939208984400,151.8155975341797000,18.1019897460937500,30.6361999511718750,51,100,98,80,66,13912,2146956507,2147512310,2147275830,2147463021,2147079908,2146956928,2147652534,2147122496,3204,-2,8,35098
1345477413,5807,352.7300109863281000,18.1637992858886720,36.5747985839843750,236.1851043701172000,149.9111938476562500,18.1595191955566400,30.6056709289550780,51,103,98,81,67,13910,2146956214,2147517403,2147276498,2147460187,2147084434,2146956406,2147658752,2147120356,76,-2,8,34962
1345477542,5804,341.9100036621094000,18.2054004669189450,36.5789985656738300,235.3545074462890600,148.4031066894531200,18.2050800323486330,30.6254291534423830,50,102,97,79,66,13910,2146953078,2147516781,2147269184,2147460516,2147080438,2146955958,2147652946,2147122642,563,-2,8,5737
1345477681,5808,330.7300109863281000,18.2609996795654300,36.5856018066406250,235.2440948486328000,146.6515045166015600,18.2580108642578120,30.6074695587158200,50,100,97,80,67,13911,2146954861,2147516004,2147275620,2147460105,2147083922,2146962925,2147659730,2147123483,976,-2,8,825
1345477820,5805,319.9700012207031000,18.3220005035400400,36.5917015075683600,234.2783050537109400,144.6322937011718800,18.3190307617187500,30.6270599365234380,51,104,98,80,68,13908,2146951369,2147519570,2147285275,2147462774,2147078848,2146957778,2147664713,2147125440,1112,-2,8,58765
1345477955,5806,307.7900085449219000,18.4057006835937500,36.5996017456054700,233.2465057373047000,141.8435974121093800,18.4033107757568360,30.6397705078125000,50,105,98,81,67,13905,2146955163,2147519030,2147289910,2147461184,2147081133,2146964068,2147667136,2147125449,1463,-2,8,48646
1345478058,5805,297.2900085449219000,18.4568004608154300,36.6052017211914060,232.4275970458984400,140.0859069824218800,18.4564495086669920,30.6560802459716800,50,103,97,81,67,13907,2146956416,2147518729,2147297956,2147457782,2147079122,2146963181,2147671817,2147125083,1010,-2,8,30220
1345478173,5802,285.4400024414062500,18.5308990478515620,36.6076011657714840,230.3526000976562500,137.5404968261718800,18.5334091186523440,30.7235908508300780,50,104,99,81,66,13903,2146955812,2147528557,2147309915,2147461833,2147074230,2146968722,2147676370,2147123346,1126,-2,8,15587
1345478278,5804,274.5899963378906000,18.6231994628906250,36.6119003295898440,228.8135986328125000,134.7857055664062500,18.6167106628417970,30.7628498077392580,50,103,100,80,68,13903,2146956525,2147526418,2147325796,2147459373,2147084059,2146969060,2147687040,2147124032,1156,-2,8,20892
1345478381,5805,264.1900024414062500,18.7212009429931640,36.6178016662597660,227.8999938964843800,131.4190063476562500,18.7185497283935550,30.7631492614746100,50,106,98,81,67,13906,2146953499,2147538450,2147346569,2147456502,2147082816,2146975341,2147699675,2147125577,1307,-3,8,56963
1345478496,5805,252.9499969482422000,18.7518997192382800,36.5984992980957000,230.5933074951172000,130.3117980957031200,18.7520408630371100,30.6154994964599600,51,102,97,80,66,13907,2146955968,2147550445,2147377746,2147458285,2147086070,2146990528,2147712886,2147127734,1356,-2,8,16141
1345478615,5809,243.0000000000000000,18.8206005096435550,36.5886001586914060,234.1598968505859400,128.2165069580078000,18.8154392242431640,30.4147796630859380,51,100,97,80,65,13908,2146957714,2147560740,2147412662,2147458313,2147084324,2146996096,2147731428,2147125933,1759,-2,8,45623
1345478790,5803,231.8300018310547000,18.8612995147705080,36.5559997558593750,243.2243041992187500,126.8458023071289000,18.8569202423095700,29.9709300994873050,51,100,98,81,65,13907,2146960018,2147592393,2147489225,2147455881,2147084187,2147015442,2147773156,2147130358,1502,-2,8,1984
1345478946,5805,219.7400054931640600,18.9936008453369140,36.5680999755859400,244.3397979736328000,122.1791000366211000,18.9981803894042970,29.8590908050537100,50,101,98,81,66,13905,2146961645,2147618953,2147557796,2147456630,2147088045,2147037888,2147811044,2147129920,2004,-2,8,8958
1345479073,5804,208.1499938964843800,19.1126003265380860,36.5736007690429700,245.7429046630859400,118.1359024047851600,19.1206092834472660,29.7425193786621100,50,101,97,81,64,13902,2146967661,2147640886,2147607725,2147456667,2147081609,2147052580,2147836946,2147130916,2443,-2,8,23959
1345479196,5806,197.0700073242187500,19.2103996276855470,36.5763015747070300,247.4627990722656200,115.3612976074218800,19.2046508789062500,29.6291103363037100,50,102,98,80,64,13903,2146973257,2147715145,2147785216,2147455725,2147098258,2147110317,2147939648,2147139730,2469,-2,8,2348
1345479251,5805,192.4700012207031200,19.2148990631103500,36.5689010620117200,248.9405975341797000,115.1392974853515600,19.2113800048828120,29.5601406097412100,50,103,98,80,66,13903,2146981467,2147759762,2147874450,2147456356,2147097453,2147135972,2147988662,2147142171,2355,-2,8,35008
1345479306,5805,187.8800048828125000,19.2268009185791000,36.5656013488769500,249.7819976806640600,114.7473983764648400,19.2232494354248050,29.5177307128906250,50,103,98,80,65,13902,2146987785,2147797668,2147963081,2147455725,2147100946,2147168384,2148040402,2147147428,2450,-2,8,24572
1345479361,5804,183.2799987792968800,19.2437992095947270,36.5680999755859400,250.1889038085937500,114.1231994628906200,19.2421607971191400,29.4917106628417970,51,103,99,80,65,13900,2146994486,2147843913,2148058733,2147455762,2147107666,2147195309,2148093750,2147148306,2381,-2,8,41074
1345479416,5804,178.7700042724609400,19.2742996215820300,36.5707015991210940,250.3385925292968800,113.2428970336914000,19.2688407897949220,29.4736900329589840,50,105,99,81,64,13898,2147001536,2147898413,2148186651,2147458459,2147110747,2147242541,2148169444,2147155510,2326,-2,8,16106
1345479495,5805,172.6999969482422000,19.3043003082275400,36.5736007690429700,250.3067932128906200,112.1359024047851600,19.3023796081542970,29.4608192443847660,51,104,98,81,65,13901,2147020352,2147991488,2148400365,2147459766,2147117897,2147313060,2148286820,2147158921,2555,-2,8,14537
1345479550,5804,168.9600067138672000,19.3220996856689450,36.5713005065918000,250.6421051025390600,111.7128982543945300,19.3152008056640620,29.4405899047851560,53,108,98,82,63,13899,2147001161,2147862939,2148071981,2147456896,2147115328,2147212982,2148108205,2147149220,2464,-2,8,13757
1345479605,5807,165.2500000000000000,19.3225002288818360,36.5657997131347660,251.4362945556640600,111.6177978515625000,19.3180809020996100,29.4042396545410160,55,107,99,81,65,13895,2147041188,2148093888,2148613037,2147456768,2147140681,2147380562,2148403309,2147168713,2572,-2,8,35862
1345479672,5803,160.9199981689453000,19.3388004302978500,36.5671997070312500,251.6643066406250000,110.9269027709961000,19.3390197753906250,29.3854103088378900,58,107,100,83,64,13892,2147060589,2148177252,2148786285,2147458267,2147149869,2147440283,2148499556,2147173485,2478,-2,8,42312
1345479727,5803,157.4400024414062500,19.3607006072998050,36.5696983337402340,251.6291961669922000,110.2136001586914000,19.3606395721435550,29.3777503967285160,58,107,98,81,64,13893,2147078546,2148250678,2148951625,2147460818,2147158628,2147490212,2148590171,2147177188,2883,-2,8,64096
1345479806,5806,153.2799987792968800,19.4050998687744140,36.5747985839843750,251.9687957763672000,109.0112991333007800,19.3970909118652340,29.3473205566406250,57,110,100,83,64,13894,2147097837,2148347145,2149140205,2147461403,2147172068,2147557101,2148693248,2147184585,3572,-2,8,43154
1345479897,5806,149.9400024414062500,19.4269008636474600,36.5765991210937500,252.0278015136718800,108.0913009643554700,19.4249801635742200,29.3329105377197270,59,110,99,81,64,13889,2147126345,2148438427,2149333120,2147460187,2147188096,2147618285,2148799670,2147190409,266,-2,8,7942
1345480024,5808,145.8899993896484400,19.4708995819091800,36.5752983093261700,251.1078948974609400,106.7519989013671900,19.4655799865722660,29.3561191558837900,73,111,100,82,64,13876,2147172772,2148614299,2149691236,2147468918,2147206336,2147720868,2148968173,2147203035,374,-2,8,25423
1345480135,5803,141.8200073242187500,19.5097007751464840,36.5825996398925800,250.8466949462890600,105.4671020507812500,19.5045394897460940,29.3507499694824220,76,111,100,81,64,13875,2147219547,2148751561,2149937536,2147472658,2147235410,2147787145,2149062985,2147208137,3311,-2,8,45378
1345480226,5803,137.5000000000000000,19.5835990905761720,36.5936012268066400,250.0675048828125000,103.0737991333007800,19.5771293640136720,29.3545494079589840,82,114,99,82,65,13870,2147154642,2148388132,2149080128,2147466404,2147197668,2147539081,2148633947,2147182994,3058,-2,8,10280
1345480305,5805,133.5700073242187500,19.6357002258300780,36.6002998352050800,249.7541046142578000,101.3097000122070300,19.6306400299072270,29.3455696105957030,92,114,100,82,63,13862,2147367533,2149221805,2150813924,2147481088,2147298825,2148017133,2149424548,2147235977,3193,-2,8,44921
1345480384,5802,129.6499938964843800,19.6870002746582030,36.6025009155273440,250.3684997558593800,99.7373962402343800,19.6783409118652340,29.2983207702636720,99,119,99,83,65,13856,2147476653,2149551213,2151394660,2147490276,2147351689,2148162660,2149638134,2147251913,3167,-2,8,62264
1345480465,5806,125.6100006103515600,19.7411003112792970,36.6026992797851560,250.8406066894531200,97.8544464111328100,19.7354793548584000,29.2534904479980470,106,119,100,82,65,13844,2147638016,2150037385,2152223058,2147503478,2147419209,2148364269,2149928082,2147272521,3566,-2,8,63472
1345480544,5807,121.5800018310546900,19.8134002685546880,36.6032981872558600,249.6101989746093800,95.4774932861328100,19.8076305389404300,29.2770195007324220,112,122,99,82,66,13838,2147870235,2150675465,2153269001,2147523812,2147509595,2148611574,2150313545,2147307620,386,-2,8,64997
1345480623,5806,117.5999984741211000,19.8586006164550780,36.6080017089843750,249.1499023437500000,93.8574981689453100,19.8568096160888670,29.2765693664550780,122,123,100,83,65,13829,2148121398,2151299008,2154219044,2147545033,2147600630,2148824777,2150589284,2147335268,85,-2,8,42352
1345480702,5804,113.5100021362304700,19.9843006134033200,36.6277999877929700,250.5068969726562500,90.0563735961914000,19.9722499847412100,29.1681194305419920,126,120,101,83,66,13822,2148502656,2152271890,2155759442,2147578157,2147745508,2149216310,2151148900,2147384457,87,-2,8,53727
1345480783,5805,109.3000030517578100,20.0212001800537100,36.6293983459472660,250.9799957275390600,88.6351394653320300,20.0154209136962900,29.1292304992675780,129,118,100,83,67,13821,2149035766,2153528521,2157597586,2147616667,2147944356,2149693449,2151796589,2147443456,474,-2,8,55181
1345480862,5804,105.2099990844726600,20.1695003509521500,36.6425018310546900,250.6591033935547000,84.3714828491211000,20.1449909210205080,29.0886592864990230,134,119,100,85,67,13815,2149736237,2155072347,2159719890,2147679506,2148183862,2150227309,2152468507,2147506432,2846,-2,8,36716
1345480941,5803,101.4700012207031200,20.2856006622314450,36.6468009948730500,251.3374023437500000,81.2466735839843800,20.2399806976318360,29.0192794799804700,138,123,101,84,68,13809,2150559369,2156830363,2162039460,2147743616,2148474605,2150863442,2153290980,2147582281,3552,-2,8,43322
1345481008,5807,98.6600036621093800,20.3899993896484380,36.6519012451171900,252.1385040283203000,76.9430770874023400,20.3708801269531250,28.9297103881835940,136,125,102,82,68,13794,2151393152,2158589805,2164313088,2147812891,2148739529,2151409609,2153965504,2147657782,303,-2,9,31441
1345481065,5807,96.6999969482421900,20.4913997650146500,36.6514015197753900,254.2868041992187500,73.5236282348632800,20.4749298095703120,28.7936191558837900,127,120,101,84,66,13791,2152201618,2160241865,2166348068,2147873600,2149024128,2151996909,2154678875,2147730706,644,-3,8,59584
1345481120,5806,95.2200012207031200,20.5499992370605470,36.6571998596191400,255.3751983642578000,71.4572372436523400,20.5378398895263670,28.7209205627441400,123,124,102,85,67,13798,2152899785,2161478656,2167575725,2147912201,2149274249,2152464201,2155204644,2147780681,799,-2,8,22561
1345481211,5804,93.3300018310546900,20.6380004882812500,36.6643981933593750,256.3388977050781000,68.4012908935546900,20.6308898925781250,28.6413898468017580,123,123,101,85,66,13791,2154160822,2163784987,2170079277,2147995300,2149724992,2153328457,2156112621,2147880429,735,-2,9,14344
1345481314,5806,91.3099975585937500,20.7479991912841800,36.6657981872558600,257.0456848144531000,64.9078826904296900,20.7373199462890620,28.5672206878662100,123,122,102,84,66,13781,2155477869,2166108754,2172515958,2148086262,2150214107,2154228443,2157060790,2147981494,639,-2,8,15971
1345481405,5806,88.6600036621093800,20.8001003265380860,36.6469001770019500,259.9989013671875000,63.0515708923339840,20.7938899993896500,28.4201393127441400,109,126,103,84,65,13775,2157385846,2169367113,2175898806,2148232868,2150985307,2155658176,2158516397,2148133074,3448,-2,8,7891
1345481460,5806,86.6699981689453100,20.9195995330810550,36.6315994262695300,262.2827148437500000,59.3927497863769500,20.9054298400878900,28.2796001434326170,105,121,103,85,63,13755,2159126646,2172262774,2178873536,2148365229,2151686235,2156919186,2159784228,2148261403,2978,-2,8,33615
1345481515,5806,84.9899978637695300,21.0277996063232420,36.6265983581543000,264.5362854003906000,55.9003181457519500,21.0119590759277340,28.1435909271240230,97,127,104,86,63,13771,2160566235,2174424859,2180819693,2148460105,2152354569,2158050825,2160814464,2148362925,2845,-2,9,56653
1345481582,5805,83.2300033569336000,21.0842990875244140,36.6282005310058600,265.0656127929687500,53.8261718750000000,21.0752506256103500,28.0962600708007800,99,124,103,86,63,13764,2162585161,2177616850,2184072841,2148621961,2153289618,2159675995,2162316937,2148512923,2774,-2,8,41200
1345481661,5804,80.8600006103515600,21.2073993682861330,36.6283988952636700,264.8788146972656000,50.5741004943847660,21.1745204925537100,28.0632801055908200,92,124,103,86,63,13776,2165515200,2181827849,2188011410,2148866633,2154643062,2161844242,2164286381,2148719360,2996,-2,8,64544
1345481740,5803,77.7900009155273400,21.5123004913330080,36.6214981079101560,264.0765991210937500,40.4263000488281250,21.4846000671386720,27.9699096679687500,89,125,103,84,64,13769,2169887067,2188380662,2194653942,2149286381,2156703332,2165180781,2167277668,2149031204,2529,-3,9,15877
1345481795,5806,75.5400009155273400,21.7577991485595700,36.6478996276855500,262.9124145507812500,32.5814018249511700,21.7246398925781250,27.9203605651855470,86,124,105,85,63,13762,2172617746,2191920877,2197794029,2149568429,2158163904,2167420516,2169198308,2149244699,2890,-2,8,13414
1345481850,5804,73.8799972534179700,21.8441009521484380,36.6585006713867200,261.7763061523437500,29.7710208892822270,21.8107109069824220,27.9318809509277340,83,126,103,86,61,13759,2175705938,2196215469,2201897417,2149865874,2159637942,2169669321,2171130057,2149447680,2499,-2,8,60816
1345481917,5804,72.1200027465820300,22.0193004608154300,36.6363983154296900,262.6893920898437500,23.7435798645019530,21.9954299926757800,27.8201293945312500,82,126,103,86,61,13762,2172271067,2188886153,2192264338,2149488374,2158349046,2166586532,2167243648,2149085449,3226,-2,8,64699
1345482008,5806,70.3199996948242200,22.1975994110107420,36.6407012939453100,262.3601074218750000,18.7856807708740230,22.1475105285644530,27.7724895477294920,84,124,103,86,60,13753,2183703542,2207780123,2213715428,2150725988,2163863625,2176118372,2177106139,2150125586,725,-2,8,12552
1345482098,5804,68.0800018310546900,22.2388000488281250,36.6361999511718750,262.1594848632812500,16.4282894134521500,22.2198696136474600,27.7516803741455080,77,127,104,87,62,13753,2188394733,2213041792,2217792539,2151275099,2166571657,2179652726,2179769929,2150464173,962,-2,8,55288
1345482153,5805,65.9300003051757800,22.4083995819091800,36.6269989013671900,262.2190856933594000,11.9398002624511720,22.3577194213867200,27.6940803527832030,76,127,106,88,61,13740,2195398354,2222139584,2226418185,2152118893,2170308196,2184832969,2184178002,2150977252,1102,-2,9,7039
1345482208,5807,63.9399986267089840,22.5506992340087900,36.6288986206054700,261.6413879394531000,6.2883501052856445,22.5314502716064450,27.6480808258056640,76,129,104,86,62,13751,2202663926,2231631186,2235756644,2153069275,2174239497,2190284608,2188734811,2151518948,782,-3,9,25887
1345482263,5804,62.2700004577636700,22.6646003723144530,36.6313018798828100,260.9620971679687500,2.1201789379119873,22.6596908569335940,27.6246700286865230,74,129,106,88,64,13746,2198408155,2222993764,2224891757,2152598729,2172685001,2186684333,2184397650,2151121938,739,-3,8,63553
1345482318,5804,60.7700004577636700,22.8164997100830080,36.6218986511230500,260.1713867187500000,-2.3298559188842773,22.7967205047607420,27.6023292541503900,72,130,102,85,61,13754,2206686628,2234225993,2236078171,2153627291,2177162560,2193233142,2190173165,2151761883,409,-2,8,25648
1345482398,5804,58.8600006103515600,22.8526000976562500,36.6053009033203100,259.9819946289062500,-4.1127018928527830,22.8516502380371100,27.5883293151855470,71,130,105,86,62,13747,2215627730,2244816850,2245555309,2154799076,2182364589,2199940580,2195265124,2152360356,2584,-3,9,63702
1345482453,5805,56.9900016784668000,22.9214992523193360,36.5353012084960940,261.3812866210937500,-6.3160829544067380,22.9195594787597660,27.5041103363037100,67,134,105,86,60,13752,2170297929,2176481865,2172481408,2149055670,2159659931,2163583808,2160606784,2148529846,2434,-3,9,62815
1345482520,5803,55.3699989318847660,23.1399002075195300,36.5357017517089840,263.0262145996094000,-12.6819295883178710,23.1159191131591800,27.3597698211669920,69,130,105,88,60,13751,2228066770,2258112292,2256370477,2156979428,2192015844,2211041042,2203290880,2153462226,1951,-2,9,2700
1345482697,5806,53.6500015258789060,23.1980991363525400,36.5343017578125000,263.3208007812500000,-15.2108402252197270,23.1940002441406250,27.3172206878662100,67,129,105,86,61,13748,2233131044,2263020534,2260456393,2157929389,2196688054,2216389824,2207486665,2154098733,1246,-2,8,12815
1345482756,5805,51.8699989318847660,23.1564006805419920,36.5103988647460940,264.1749877929687500,-14.4945802688598630,23.1718807220459000,27.2916107177734380,66,127,106,86,61,13753,2242212388,2273635126,2270492050,2159605056,2203248438,2223503286,2212536118,2154918692,1191,-2,8,38393
1345482815,5803,49.8499984741210940,23.3960990905761720,36.4934005737304700,263.8216857910156000,-21.6428794860839840,23.3927593231201170,27.2188301086425780,62,130,104,85,62,13758,2253520521,2287121673,2283609563,2161943826,2212356498,2234290614,2220686756,2156024960,1307,-3,8,25430
1345482908,5805,47.8199996948242200,23.6004009246826170,36.4864997863769500,264.1742858886719000,-27.6641197204589840,23.5790596008300780,27.1315097808837900,61,127,103,87,59,13756,2258296685,2291603382,2287373888,2163299355,2217663186,2239659190,2223346852,2156427858,3412,-2,8,19805
1345483036,5806,45.8400001525878900,23.7043991088867200,36.4781990051269500,263.6328125000000000,-31.8444805145263670,23.7085399627685550,27.1025791168212900,62,130,105,87,55,13747,2270750464,2304122258,2297953572,2166428598,2230623369,2253242669,2232638409,2157915401,439,-2,8,15452
1345483093,5807,43.7700004577636700,23.7987995147705080,36.4790992736816400,263.7025146484375000,-34.8190116882324200,23.8007392883300780,27.0636806488037100,62,129,105,87,62,13754,2281976658,2316767341,2310896731,2169982912,2241296310,2264684909,2240162916,2159288804,427,-3,8,3827
1345483150,5804,41.7000007629394500,23.8246002197265620,36.4794006347656250,263.6064147949219000,-36.0787391662597660,23.8397998809814450,27.0522994995117200,59,129,106,88,60,13751,2253213147,2276106578,2267801124,2165384603,2222603538,2237183296,2215799954,2156273307,3473,-3,9,36125
1345483207,5804,39.7099990844726560,23.9337005615234380,36.4808998107910160,263.1653137207031000,-39.3609008789062500,23.9416294097900400,27.0302696228027340,61,129,104,89,58,13754,2300326290,2334667666,2325809645,2176861997,2261849380,2284956617,2253838317,2161896850,3393,-2,8,61771
1345483276,5807,37.7200012207031250,24.0699996948242200,36.4817008972168000,262.6836853027344000,-42.9648513793945300,24.0535297393798830,27.0058593750000000,60,131,107,87,60,13755,2312965796,2348079259,2338700470,2181527094,2272831606,2296259721,2261308644,2163121206,3150,-2,8,49369